When you browse on this site, cookies collect data to enhance your experience and personalize the content and advertising you see.
Visit our Privacy Policy to learn more. By continuing to use the site, you agree to this use of cookies and data.
  • în România
  • Lista ţărilor
  • Pe 7 zile
  • Temperatura apei
  • Meteo pe hartă
  • Widget-uri
  • user-avatar
    Intrare

    Meteo pe oră la Huánuco

    Astăzi, 4 Iunie, Joi

    Timp Temperatura Precipitaţii Vânt Presiune Umiditate
    00:00 +15°C° 0 mm 0 m/s 597 mmHg 96%
    01:00 +15°C° 0 mm 0 m/s 597 mmHg 95%
    02:00 +15°C° 0 mm 0 m/s 597 mmHg 94%
    03:00 +15°C° 0 mm 0 m/s 596 mmHg 94%
    04:00 +15°C° 0 mm 0 m/s 596 mmHg 93%
    05:00 +15°C° 0 mm 0 m/s 597 mmHg 91%
    06:00 +15°C° 0 mm 0 m/s 597 mmHg 90%
    07:00 +16°C° 0 mm 0 m/s 597 mmHg 89%
    08:00 +19°C° 0 mm 1 m/s 598 mmHg 83%
    09:00 +21°C° 0 mm 1 m/s 599 mmHg 78%
    10:00 +22°C° 0 mm 1 m/s 600 mmHg 73%
    11:00 +23°C° 0.3 mm 2 m/s 599 mmHg 71%
    12:00 +23°C° 0.3 mm 2 m/s 599 mmHg 70%
    13:00 +24°C° 0.3 mm 2 m/s 599 mmHg 68%
    14:00 +24°C° 0.4 mm 2 m/s 598 mmHg 71%
    15:00 +22°C° 0.4 mm 3 m/s 597 mmHg 74%
    16:00 +22°C° 0.4 mm 3 m/s 597 mmHg 78%
    17:00 +20°C° 0.2 mm 2 m/s 597 mmHg 84%
    18:00 +19°C° 0.2 mm 2 m/s 597 mmHg 90%
    19:00 +18°C° 0.2 mm 1 m/s 597 mmHg 97%
    20:00 +18°C° 0 mm 1 m/s 597 mmHg 96%
    21:00 +18°C° 0 mm 1 m/s 597 mmHg 96%
    22:00 +15°C° 0 mm 0 m/s 598 mmHg 95%
    23:00 +15°C° 0.1 mm 0 m/s 598 mmHg 94%

    Mâine, 5 Iunie, Vineri

    Timp Temperatura Precipitaţii Vânt Presiune Umiditate
    00:00 +16°C° 0.1 mm 0 m/s 598 mmHg 94%
    01:00 +16°C° 0.1 mm 0 m/s 598 mmHg 93%
    02:00 +16°C° 0.3 mm 0 m/s 597 mmHg 93%
    03:00 +16°C° 0.3 mm 0 m/s 597 mmHg 93%
    04:00 +16°C° 0.3 mm 0 m/s 597 mmHg 93%
    05:00 +16°C° 0.4 mm 0 m/s 598 mmHg 94%
    06:00 +16°C° 0.4 mm 0 m/s 598 mmHg 96%
    07:00 +16°C° 0.4 mm 0 m/s 598 mmHg 97%
    08:00 +18°C° 0.3 mm 1 m/s 599 mmHg 95%
    09:00 +19°C° 0.3 mm 1 m/s 599 mmHg 93%
    10:00 +19°C° 0.3 mm 1 m/s 600 mmHg 92%
    11:00 +19°C° 1 mm 1 m/s 599 mmHg 92%
    12:00 +19°C° 1 mm 1 m/s 599 mmHg 93%
    13:00 +19°C° 1 mm 1 m/s 598 mmHg 93%
    14:00 +19°C° 0.4 mm 1 m/s 598 mmHg 91%
    15:00 +19°C° 0.4 mm 1 m/s 598 mmHg 90%
    16:00 +17°C° 0.4 mm 0 m/s 597 mmHg 88%
    17:00 +16°C° 0 mm 0 m/s 597 mmHg 90%
    18:00 +16°C° 0 mm 0 m/s 597 mmHg 92%
    19:00 +15°C° 0 mm 0 m/s 597 mmHg 94%
    20:00 +15°C° 0 mm 0 m/s 598 mmHg 93%
    21:00 +15°C° 0 mm 0 m/s 598 mmHg 92%
    22:00 +15°C° 0 mm 0 m/s 599 mmHg 91%
    23:00 +15°C° 0.1 mm 0 m/s 599 mmHg 92%

    Poimâine, 6 Iunie, Sâmbătă

    Timp Temperatura Precipitaţii Vânt Presiune Umiditate
    00:00 +15°C° 0.1 mm 0 m/s 599 mmHg 92%
    01:00 +16°C° 0.1 mm 0 m/s 598 mmHg 92%
    02:00 +16°C° 0.2 mm 0 m/s 598 mmHg 93%
    03:00 +15°C° 0.2 mm 0 m/s 598 mmHg 93%
    04:00 +15°C° 0.2 mm 0 m/s 598 mmHg 93%
    05:00 +16°C° 0.1 mm 0 m/s 598 mmHg 92%
    06:00 +16°C° 0.1 mm 0 m/s 598 mmHg 92%
    07:00 +16°C° 0.1 mm 0 m/s 599 mmHg 91%
    08:00 +16°C° 0.2 mm 0 m/s 599 mmHg 89%
    09:00 +19°C° 0.2 mm 1 m/s 600 mmHg 87%
    10:00 +20°C° 0.2 mm 1 m/s 600 mmHg 85%
    11:00 +20°C° 0.2 mm 1 m/s 599 mmHg 85%
    12:00 +20°C° 0.2 mm 1 m/s 599 mmHg 85%
    13:00 +20°C° 0.2 mm 1 m/s 598 mmHg 85%
    14:00 +20°C° 0.2 mm 1 m/s 598 mmHg 82%
    15:00 +20°C° 0.2 mm 2 m/s 598 mmHg 80%
    16:00 +21°C° 0.2 mm 2 m/s 598 mmHg 77%
    17:00 +20°C° 0.2 mm 1 m/s 598 mmHg 83%
    18:00 +19°C° 0.2 mm 1 m/s 597 mmHg 89%
    19:00 +18°C° 0.2 mm 1 m/s 597 mmHg 95%
    20:00 +16°C° 0.1 mm 1 m/s 598 mmHg 94%
    21:00 +16°C° 0.1 mm 1 m/s 598 mmHg 93%
    22:00 +15°C° 0.1 mm 1 m/s 598 mmHg 92%
    23:00 +14°C° 0 mm 0 m/s 598 mmHg 92%

    7 Iunie, Duminică

    Timp Temperatura Precipitaţii Vânt Presiune Umiditate
    00:00 +13°C° 0 mm 0 m/s 598 mmHg 92%
    01:00 +13°C° 0 mm 0 m/s 597 mmHg 92%
    02:00 +14°C° 0 mm 1 m/s 597 mmHg 90%
    03:00 +14°C° 0 mm 1 m/s 597 mmHg 89%
    04:00 +14°C° 0 mm 1 m/s 597 mmHg 88%
    05:00 +14°C° 0 mm 1 m/s 597 mmHg 87%
    06:00 +15°C° 0 mm 1 m/s 598 mmHg 85%
    07:00 +15°C° 0 mm 1 m/s 599 mmHg 84%
    08:00 +18°C° 0 mm 1 m/s 599 mmHg 75%
    09:00 +20°C° 0 mm 1 m/s 600 mmHg 65%
    10:00 +23°C° 0 mm 1 m/s 601 mmHg 56%
    11:00 +23°C° 0 mm 1 m/s 601 mmHg 54%
    12:00 +24°C° 0 mm 2 m/s 600 mmHg 53%
    13:00 +25°C° 0 mm 3 m/s 600 mmHg 52%
    14:00 +24°C° 0.2 mm 3 m/s 599 mmHg 58%
    15:00 +22°C° 0.2 mm 3 m/s 599 mmHg 64%
    16:00 +22°C° 0.2 mm 3 m/s 598 mmHg 70%
    17:00 +20°C° 0 mm 2 m/s 598 mmHg 77%
    18:00 +19°C° 0 mm 1 m/s 597 mmHg 85%
    19:00 +16°C° 0 mm 1 m/s 597 mmHg 93%
    20:00 +16°C° 0 mm 1 m/s 597 mmHg 92%
    21:00 +16°C° 0 mm 1 m/s 598 mmHg 91%
    22:00 +15°C° 0 mm 1 m/s 598 mmHg 90%
    23:00 +15°C° 0 mm 1 m/s 598 mmHg 89%

    8 Iunie, Luni

    Timp Temperatura Precipitaţii Vânt Presiune Umiditate
    00:00 +15°C° 0 mm 1 m/s 598 mmHg 88%
    01:00 +15°C° 0 mm 1 m/s 597 mmHg 87%
    02:00 +15°C° 0 mm 1 m/s 597 mmHg 86%
    03:00 +14°C° 0 mm 1 m/s 597 mmHg 85%
    04:00 +14°C° 0 mm 1 m/s 597 mmHg 85%
    05:00 +15°C° 0 mm 1 m/s 597 mmHg 84%
    06:00 +15°C° 0 mm 1 m/s 598 mmHg 82%
    07:00 +16°C° 0 mm 1 m/s 599 mmHg 81%
    08:00 +19°C° 0 mm 1 m/s 599 mmHg 73%
    09:00 +21°C° 0 mm 1 m/s 600 mmHg 65%
    10:00 +24°C° 0 mm 1 m/s 601 mmHg 57%
    11:00 +24°C° 0.1 mm 2 m/s 601 mmHg 57%
    12:00 +25°C° 0.1 mm 2 m/s 600 mmHg 58%
    13:00 +25°C° 0.1 mm 3 m/s 600 mmHg 58%
    14:00 +25°C° 0.4 mm 3 m/s 599 mmHg 61%
    15:00 +24°C° 0.4 mm 3 m/s 599 mmHg 65%
    16:00 +24°C° 0.4 mm 3 m/s 598 mmHg 68%
    17:00 +21°C° 0.3 mm 2 m/s 598 mmHg 77%
    18:00 +20°C° 0.3 mm 1 m/s 597 mmHg 86%
    19:00 +18°C° 0.3 mm 1 m/s 597 mmHg 95%
    20:00 +15°C° 0 mm 0 m/s 597 mmHg 94%
    21:00 +15°C° 0 mm 0 m/s 597 mmHg 94%
    22:00 +14°C° 0 mm 0 m/s 597 mmHg 94%
    23:00 +14°C° 0 mm 0 m/s 597 mmHg 93%

    9 Iunie, Marţi

    Timp Temperatura Precipitaţii Vânt Presiune Umiditate
    00:00 +15°C° 0 mm 1 m/s 597 mmHg 92%
    01:00 +15°C° 0 mm 1 m/s 597 mmHg 91%
    02:00 +15°C° 0 mm 1 m/s 597 mmHg 90%
    03:00 +15°C° 0 mm 1 m/s 596 mmHg 89%
    04:00 +14°C° 0 mm 1 m/s 596 mmHg 88%
    05:00 +15°C° 0 mm 1 m/s 597 mmHg 85%
    06:00 +16°C° 0 mm 1 m/s 597 mmHg 83%
    07:00 +16°C° 0 mm 1 m/s 598 mmHg 81%
    08:00 +19°C° 0 mm 1 m/s 599 mmHg 74%
    09:00 +22°C° 0 mm 1 m/s 600 mmHg 66%
    10:00 +24°C° 0 mm 1 m/s 600 mmHg 59%
    11:00 +24°C° 0.2 mm 2 m/s 600 mmHg 58%
    12:00 +25°C° 0.2 mm 2 m/s 600 mmHg 57%
    13:00 +26°C° 0.2 mm 3 m/s 599 mmHg 56%
    14:00 +25°C° 0.3 mm 3 m/s 599 mmHg 61%
    15:00 +25°C° 0.3 mm 3 m/s 598 mmHg 66%
    16:00 +24°C° 0.3 mm 3 m/s 597 mmHg 70%
    17:00 +21°C° 0.1 mm 2 m/s 597 mmHg 79%
    18:00 +20°C° 0.1 mm 1 m/s 596 mmHg 87%
    19:00 +16°C° 0.1 mm 0 m/s 596 mmHg 96%
    20:00 +15°C° 0 mm 0 m/s 596 mmHg 95%
    21:00 +15°C° 0 mm 0 m/s 596 mmHg 94%
    22:00 +14°C° 0 mm 0 m/s 596 mmHg 93%
    23:00 +14°C° 0 mm 0 m/s 596 mmHg 92%
    Arată mai mult